Location: Campbell School (historical)
(38.0909°N, 89.8979°W)
Time: 02:37:50
(UTC+00:00)

Daily predictions for brighter satellites

Satellite Brightness Start Highest point End
(mag) Time Altitude Azimuth Time Altitude Azimuth Time Altitude Azimuth
NOSS 3-1 (C) 4.3 01:29:15 10° NNW 01:36:58 82° ENE 01:46:09 10° SE
Cosmos 2112 Rocket 4.5 01:34:06 10° S 01:39:02 40° ESE 01:43:57 10° NNE
Cosmos 1515 3.8 01:36:33 10° SSE 01:39:51 42° E 01:43:10 10° NNE
CSL-04 Rocket 3.9 01:35:12 10° SSE 01:40:19 52° ENE 01:45:26 10° N
CZ-4 R/B 1.8 01:40:56 10° S 01:44:38 60° W 01:48:25 10° NNW
Gbstr 26 Del rocket 3.8 01:38:41 10° NW 01:45:09 81° SW 01:50:18 10° SE
CSL-04 Debris 4.3 01:39:56 10° SSE 01:45:20 65° ENE 01:50:44 10° N
SPOT 5 4.5 01:42:51 10° ESE 01:45:47 17° ENE 01:48:40 10° NNE
SeaSat 1 2.6 01:42:36 10° SSE 01:47:30 79° WSW 01:52:26 10° NNW
Cosmos 1680 Rocket 3.6 01:42:31 10° S 01:47:41 59° ESE 01:52:52 10° NNE
USA 308 2.3 01:45:20 10° NW 01:47:52 56° SW 01:51:04 10° SE
Cosmos 2369 Rocket 3.9 01:44:27 10° NNE 01:48:10 18° NE 01:51:51 10° E
Resurs 01 Rocket 1.6 01:47:08 10° SSE 01:51:31 69° ENE 01:55:57 10° N
Cosmos 2344 4.4 01:43:43 10° NNW 01:52:24 63° NE 02:04:17 11° SE
Cosmos 2237 Rocket 4.2 01:53:22 10° WSW 01:58:27 33° WNW 02:03:36 10° N
Cosmos 1782 3.3 01:57:48 10° SSW 02:01:34 61° W 02:05:21 10° N
BREEZE-M DEB (TANK) 3.6 01:59:35 10° WSW 02:02:41 62° NNW 02:09:01 10° ENE
PSLV R/B 3.6 02:02:33 10° SSE 02:06:19 84° ENE 02:10:02 10° N
OAO 2 Rocket 3.8 02:01:25 10° W 02:06:32 51° SSW 02:10:46 15° ESE
Okean O Rocket 1.6 02:02:41 10° SSE 02:07:07 86° ENE 02:11:34 10° NNW
Cosmos-2242 4.1 02:04:53 10° SSW 02:08:54 45° W 02:12:58 10° N
Aureole 3 Rocket 4.2 02:05:46 10° NNE 02:09:39 32° E 02:13:44 14° SE
Meteor 2-21 Rocket 4.5 02:05:14 10° S 02:11:26 87° E 02:17:38 10° N
USA 290 2.4 02:09:01 10° N 02:12:11 55° ENE 02:14:20 18° SE
Cosmos 2056 Rocket 4.1 02:08:26 10° N 02:13:32 42° ENE 02:17:22 16° SE
Cosmos 1943 4.1 02:09:13 10° SSE 02:13:58 28° ESE 02:18:42 10° NE
Cosmos 1943 Rocket 3.1 02:20:17 10° NW 02:25:38 45° WSW 02:30:56 10° S
Cosmos 2084 4.2 02:23:00 10° NNW 02:26:26 33° NE 02:28:22 20° ESE
Cosmos 44 3.5 02:22:20 10° NNW 02:27:01 53° NE 02:29:44 22° SE
SL-8 R/B 3.9 02:23:31 10° WSW 02:28:14 73° NNW 02:33:00 10° NE
Cosmos 1766 Rocket 4.0 02:29:42 10° N 02:33:59 44° E 02:36:11 25° SE
ERS-1 Rocket 3.7 02:35:26 22° ESE 02:38:02 38° ENE 02:42:40 10° N
FALCON 9 R/B 2.9 02:34:12 10° W 02:38:43 68° S 02:53:42 10° E
Cosmos 494 Rocket 3.9 02:35:08 10° S 02:40:09 63° ESE 02:45:12 10° NNE
Cosmos 2221 2.5 02:36:57 10° S 02:41:16 83° W 02:45:36 10° N
ATLAS 3B R/B 3.0 02:35:36 10° NNW 02:43:30 84° WSW 02:48:59 21° SSE
USA 245 4.2 02:44:24 16° NE 02:44:24 16° NE 02:45:20 10° NNE
IRS-1C Rocket 4.1 02:42:58 24° SSE 02:46:12 67° ENE 02:51:25 10° N
Okean-O 2.9 02:43:48 18° S 02:47:03 67° WSW 02:51:27 10° NNW
Cosmos 1048 Rocket 4.1 02:43:51 16° S 02:47:44 52° ESE 02:52:43 10° NNE
CZ-4C R/B 3.9 02:44:19 10° N 02:48:04 56° WNW 02:51:57 10° SSW
Centaur D AC-29 3.3 02:44:20 10° SW 02:48:54 32° SSE 03:04:03 10° E
USA 281 4.3 02:49:24 18° ESE 02:53:05 30° NE 02:58:38 10° N
MOS 1 Rocket 4.4 02:55:06 27° ESE 02:56:50 34° ENE 03:01:32 10° N
Cosmos 2297 3.7 02:51:17 10° NNW 02:57:03 83° ENE 03:00:01 30° SSE
MetOp-B 4.1 02:54:08 23° SSE 02:57:31 86° WSW 03:02:54 10° NNW
Cosmos 1371 Rocket 4.2 02:54:18 10° NNW 02:59:38 72° WSW 03:02:42 26° S
Cosmos 921 Rocket 3.8 02:55:36 10° SSW 02:59:57 53° WNW 03:04:21 10° N
Okean 1 4.5 03:02:50 25° ENE 03:02:50 25° ENE 03:05:34 10° NNE
Lacrosse 5 2.5 02:58:32 10° NW 03:03:27 48° SW 03:05:39 29° S
Meteor 1-14 Rocket 4.3 03:02:22 10° N 03:08:16 77° E 03:11:08 32° SSE
Meteor 1-11 Rocket 4.5 03:03:23 10° N 03:08:38 37° ENE 03:10:16 31° ESE
Cosmos 1536 3.8 03:07:48 10° NNE 03:11:11 31° ENE 03:11:11 31° ENE
Terra 1.7 03:11:35 43° SE 03:13:04 72° ENE 03:17:46 10° N
SPOT 3 Rocket 3.7 03:12:32 39° SE 03:14:09 56° ENE 03:19:11 10° N
Cosmos 2279 Rocket 4.0 03:08:17 10° N 03:14:24 61° E 03:16:51 36° SE
Molniya-1 4.2 03:16:16 38° E 03:16:16 38° E 03:21:27 10° NE
SL-16 R/B 4.4 03:13:31 10° WSW 03:18:09 25° WNW 03:22:49 10° N
Cosmos 1743 3.1 03:14:46 10° NNW 03:18:17 51° W 03:19:07 41° SW
GEOS 3 Rocket 3.4 03:14:11 10° NE 03:19:21 85° SE 03:24:26 10° SSW
IRS-1A Rocket 4.5 03:16:28 28° S 03:19:30 68° WSW 03:25:03 10° NNW
Cosmos 1634 Rocket 4.0 03:13:46 10° N 03:20:03 79° W 03:23:26 29° S
Cosmos 1603 3.6 03:17:41 30° S 03:20:28 66° ESE 03:26:07 10° NNE
Spot 2 Rocket 3.4 03:20:07 45° SSE 03:21:39 77° ENE 03:26:41 10° N
SPOT 5 3.6 03:21:11 25° SSW 03:23:30 43° W 03:27:46 10° NNW
Cosmos 2263 4.1 03:21:50 10° NNW 03:27:34 82° ENE 03:29:20 46° SSE
Cosmos 1151 Rocket 4.3 03:31:33 27° ENE 03:31:33 27° ENE 03:34:24 10° NNE
Cosmos 2369 Rocket 2.3 03:27:06 10° NNW 03:32:40 66° WSW 03:34:31 41° S
MetOp-A 4.2 03:34:19 43° E 03:34:34 43° ENE 03:39:03 10° N
ISS -1.9 03:32:49 10° NNW 03:35:37 24° NNE 03:35:42 24° NNE
Cosmos 1500 Rocket 4.0 03:32:22 10° N 03:36:17 46° ENE 03:36:17 46° ENE
Cosmos 1726 2.7 03:34:26 10° N 03:36:42 44° NNW 03:36:42 44° NNW
Okean 3 Rocket 3.9 03:34:47 10° NNW 03:39:06 60° W 03:39:52 51° SW
Ariane Rocket 3.1 03:43:07 49° SSW 03:44:21 67° WSW 03:49:25 10° NNW
Meteor 2-10 4.2 03:39:20 10° N 03:44:45 56° ENE 03:45:22 53° ESE
USA 229 DEB 4.0 03:37:46 10° NW 03:45:25 80° WSW 03:48:32 42° SSE
USA 229 4.0 03:37:51 10° NW 03:45:31 81° WSW 03:48:38 42° SSE
Cosmos 1805 Rocket 4.0 03:42:04 10° N 03:45:58 48° ENE 03:45:58 48° ENE
BREEZE-M DEB (TANK) 3.8 03:29:50 10° SW 03:47:27 86° NW 03:51:28 10° NE
Meteor 2-17 Rocket 4.3 03:50:12 55° SSE 03:51:26 71° E 03:57:27 10° NNE
Meteor 1-27 Rocket 3.5 03:51:15 58° S 03:52:23 87° E 03:57:55 10° N
Cosmos 2180 Rocket 4.4 03:51:25 10° N 03:57:35 83° W 03:59:06 54° S
Cosmos 1452 Rocket 3.4 03:54:21 10° NNW 03:59:34 74° WSW 04:00:07 67° SSW
Cosmos 1340 Rocket 3.4 04:01:12 53° N 04:01:12 53° N 04:04:19 10° N
ARIANE 5 R/B 3.8 04:14:14 32° NE 04:14:14 32° NE 04:17:20 10° N
Meteor 2-4 Rocket 3.9 04:14:08 58° E 04:14:08 58° E 04:19:54 10° NNE
Sich 1 3.4 04:11:54 10° NNW 04:15:38 61° NW 04:15:38 61° NW
Meteor 2-9 Rocket 4.3 04:13:26 10° NNW 04:19:15 69° W 04:20:00 62° SW
Meteor 1-18 Rocket 4.5 04:23:58 57° E 04:23:58 57° E 04:29:32 10° NNE
H-2A R/B 4.2 04:26:26 25° NE 04:26:26 25° NE 04:28:55 10° N
Cosmos 1743 Rocket 4.3 04:24:04 10° NNW 04:27:41 50° WNW 04:27:41 50° WNW
Lacrosse 4 Rocket 3.6 04:27:40 10° N 04:30:02 18° NE 04:30:02 18° NE
USA 59 Rocket 1.4 04:27:07 10° NNW 04:30:54 36° NE 04:30:54 36° NE
Cosmos 1428 Rocket 4.4 04:32:48 68° SW 04:33:31 77° W 04:39:39 10° N
Cosmos 614 Rocket 4.1 04:36:01 71° NW 04:36:01 71° NW 04:41:02 10° NNE
USA 281 3.6 04:36:16 48° SW 04:37:14 51° WSW 04:43:38 10° NNW
Cosmos 1092 Rocket 3.8 04:38:02 80° S 04:38:25 88° E 04:44:45 10° N
Cosmos 1975 4.4 04:38:40 10° N 04:40:53 32° N 04:40:53 32° N
Cosmos 1302 Rocket 4.3 04:41:03 10° NNW 04:45:34 62° WNW 04:45:34 62° WNW
Cosmos 1992 Rocket 4.4 04:45:15 10° N 04:49:43 55° NNE 04:49:43 55° NNE
Terra 4.4 04:50:42 10° W 04:51:06 10° W 04:51:30 10° W
Cosmos 1818 3.8 05:00:04 66° N 05:00:04 66° N 05:04:53 10° NNE
Cosmos 2082 Rocket 4.4 05:12:28 14° ENE 05:12:28 14° ENE 05:14:00 10° ENE
Cosmos 1833 Rocket 3.2 05:13:06 50° NE 05:13:06 50° NE 05:17:19 10° NNE
CZ-3 Stage 3 4.1 04:54:22 10° WSW 05:16:07 47° SSW 05:16:07 47° SSW
ALOS 2 4.0 05:30:51 36° N 05:30:51 36° N 05:33:29 10° N
H-2A R/B 4.0 05:27:20 10° NNE 05:29:24 25° NE 05:29:24 25° NE
Cosmos 407 Rocket 4.4 05:44:50 43° NE 05:44:50 43° NE 05:48:28 10° NNE
Cosmos 1656 4.4 05:40:48 10° NNW 05:44:44 44° WNW 05:44:44 44° WNW
USA 267 3.4 05:44:38 10° NE 05:51:08 70° NW 05:52:17 59° W
SL-08 ROCKET BODY 4.5 05:53:53 75° NNE 05:53:53 75° NNE 05:59:34 10° N
S3M 4.0 05:52:43 10° N 05:58:48 81° NNE 05:58:48 81° NNE
ATLAS CENTAUR R/B 4.5 05:48:20 10° NW 06:02:08 70° NE 06:07:30 32° ESE
Cosmos 2315 Rocket 4.2 05:58:51 10° N 06:04:55 65° ENE 06:04:55 65° ENE
Cosmos 2285 Rocket 4.1 06:06:17 69° NW 06:06:17 69° NW 06:12:23 10° NNE
Lacrosse 4 Rocket 4.0 06:05:12 10° NW 06:05:57 14° NW 06:05:57 14° NW
Cosmos 1697 Rocket 3.1 06:06:16 10° NNW 06:10:50 60° NNW 06:10:50 60° NNW
Cosmos 1980 Rocket 2.9 06:13:34 10° N 06:19:03 47° ENE 06:19:10 47° ENE
Cosmos 44 Rocket 4.4 06:15:49 10° NNW 06:19:07 41° N 06:19:07 41° N
USA 59 Rocket 2.7 06:16:43 10° WNW 06:17:27 14° WNW 06:17:27 14° WNW
USA 234 4.2 06:18:12 11° ESE 06:24:10 45° NE 06:30:19 10° NW
COSMOS 2406 3.7 06:25:37 54° ENE 06:25:37 54° ENE 06:30:19 10° NNE
Cosmos 2369 4.5 06:25:10 10° N 06:30:38 45° ENE 06:31:08 44° ENE
Cosmos 2228 Rocket 4.5 06:35:01 37° N 06:35:01 37° N 06:37:47 10° N
Cosmos 1655 Rocket 4.2 06:33:57 59° WNW 06:33:57 59° WNW 06:40:04 10° N
Meteor 2-10 Rocket 3.9 06:28:42 10° N 06:33:58 71° NNE 06:33:58 71° NNE
H-II Stage 2 4.4 06:40:46 51° SSE 06:41:08 51° SSE 07:23:16 10° E
SL-16 R/B 4.4 06:45:16 10° N 06:49:26 20° NE 06:53:34 10° ESE
Meteor 1-21 4.3 06:53:57 71° NNW 06:53:57 71° NNW 06:59:10 10° N
Cosmos 2082 Rocket 2.5 06:54:17 60° NW 06:54:17 60° NW 06:59:38 10° NNE
Meteor 2-20 4.4 06:50:17 10° N 06:56:12 76° WNW 06:56:12 76° WNW
CZ-2D R/B 3.7 07:01:30 10° NE 07:05:57 25° E 07:06:34 24° ESE
H-2A R/B 4.4 07:04:11 10° NNW 07:06:13 16° NW 07:06:13 16° NW
DELTA 2 R/B (1) 3.6 07:09:07 74° NNE 07:09:07 74° NNE 07:14:21 10° E
Cosmos 841 Rocket 4.5 07:10:05 10° N 07:15:03 42° ENE 07:16:16 36° E
Resurs 1-4 Rocket 3.1 07:15:01 10° NNE 07:19:47 34° E 07:20:14 34° ESE
MSX 4.4 07:18:51 10° NNE 07:24:19 45° E 07:25:08 42° ESE
COBE Rocket 4.3 07:21:06 10° NNE 07:25:53 54° E 07:25:53 54° E
Cosmos 1703 Rocket 4.1 07:27:15 56° NNE 07:27:15 56° NNE 07:30:47 10° N
Cosmos 1953 3.6 07:23:19 10° N 07:25:47 37° N 07:25:47 37° N
SL-4 R/B 4.5 07:31:45 15° E 07:31:45 15° E 07:33:06 10° E
Cosmos 468 Rocket 4.4 07:25:43 10° NNW 07:30:00 53° WNW 07:30:00 53° WNW
Cosmos 2278 4.2 07:26:19 10° NNW 07:31:58 58° ENE 07:34:03 37° SE
CZ-2C R/B 3.7 07:33:41 25° ESE 07:35:57 38° ENE 07:40:42 10° N
SL-8 R/B 4.3 07:33:16 10° NW 07:37:57 54° NNE 07:42:38 10° ESE
Timation 1 Rocket 4.3 07:41:37 63° SSE 07:42:25 72° ESE 07:48:21 10° NNE
Cosmos 2333 Rocket 4.3 07:40:23 10° N 07:45:03 25° ENE 07:49:43 10° ESE
Lacrosse 5 rocket 3.1 07:42:26 10° NNW 07:46:01 29° NE 07:49:28 10° E
Cosmos 1300 Rocket 4.2 07:43:40 10° N 07:47:50 47° E 07:48:13 45° E
Cosmos 1745 Rocket 3.9 07:47:13 61° SW 07:48:08 70° W 07:54:24 10° N
Cosmos 2322 Rocket 3.5 07:44:01 10° N 07:49:15 37° ENE 07:54:29 10° SE
MOZ.5/SAFIR/RUBIN 5/SL-8 3.9 07:52:29 60° WNW 07:52:29 60° WNW 07:56:40 10° NNW
NPP 3.5 07:50:24 10° NNE 07:55:49 84° WNW 07:56:33 67° SSW
NOSS 3-4 (A) 4.4 07:49:56 10° NW 07:56:34 39° WSW 07:56:34 39° WSW
NOSS 3-4 (C) 4.4 07:50:02 10° NW 07:56:43 40° WSW 07:56:43 40° WSW
ATLAS CENTAUR R/B 4.4 07:47:54 10° NW 07:58:38 37° WSW 07:59:39 36° WSW
Cosmos 1315 Rocket 4.2 08:00:47 29° NW 08:00:47 29° NW 08:03:19 10° N
Cosmos 1980 Rocket 3.9 07:58:22 10° NW 08:00:53 19° WNW 08:00:53 19° WNW
ALOS 3.9 07:59:45 10° NE 08:03:43 27° E 08:05:29 21° SE
ADEOS II 2.4 08:01:02 10° NNE 08:06:12 59° E 08:07:43 42° SSE
USA 234 3.3 08:05:25 43° S 08:07:02 53° SW 08:13:25 10° NW
SJ 16-02 1.3 08:06:53 68° ESE 08:07:03 69° ESE 08:11:21 10° NNE
IDEFIX/ARIANE 42P 2.7 08:05:30 10° N 08:10:40 59° WNW 08:11:29 52° WSW
COSMOS 2441 4.2 08:10:21 10° NNE 08:15:09 86° ESE 08:16:03 59° S
Nadezhda 1 Rocket 4.3 08:09:17 10° NNW 08:15:23 47° W 08:16:37 42° WSW
Meteor 1-28 Rocket 4.4 08:17:04 28° ESE 08:18:18 37° ENE 08:21:38 10° N
Cosmos 1703 3.2 08:18:18 67° ESE 08:18:22 67° E 08:22:05 10° NNE
Genesis I 3.6 08:20:19 46° NNW 08:20:19 46° NNW 08:23:21 10° NNE
Cosmos 1455 4.3 08:19:17 10° NW 08:20:06 14° NW 08:20:06 14° NW
Cosmos 1782 Rocket 4.0 08:23:58 10° NNW 08:27:55 44° W 08:27:55 44° W
CZ-2C R/B 3.3 08:24:32 10° N 08:30:21 75° WNW 08:32:30 40° SSW
SL-16 R/B 2.2 08:28:21 10° NNW 08:33:54 57° WSW 08:36:03 35° SSW
RESURS DK-1 3.9 08:30:38 10° N 08:34:23 35° ENE 08:38:07 10° SE
SAR-Lupe-4 4.0 08:31:19 10° NNE 08:34:49 54° ESE 08:35:33 44° SE
AQUA 3.7 08:37:30 10° N 08:42:14 75° WNW 08:43:54 40° SSW
Cosmos 968 Rocket 4.2 08:41:59 31° W 08:43:20 36° WNW 08:48:04 10° N
CZ-2D R/B 2.9 08:40:58 10° N 08:46:00 39° WNW 08:47:51 30° WSW
SL-27 R/B 3.5 08:46:45 25° NW 08:46:45 25° NW 08:48:33 10° N
Cosmos 2219 Rocket 3.4 08:41:10 10° N 08:46:32 43° ENE 08:51:53 10° SE
Cosmos 1825 3.2 08:47:19 21° SSE 08:49:03 36° E 08:52:13 10° NNE
SL-16 R/B 2.5 08:47:04 10° SSE 08:53:20 83° WSW 08:59:38 10° NNW
ATLAS 2AS CENTAUR R/B 3.9 08:47:31 10° NNW 08:53:58 43° NE 09:00:12 10° ESE
Meteor 1-24 Rocket 3.9 08:51:31 30° SSW 08:54:34 63° W 09:00:33 10° N
DELTA 2 R/B (1) 3.5 08:49:50 10° WNW 08:55:21 87° SSW 09:00:55 10° ESE
Cosmos 2360 Rocket 2.1 08:49:57 10° NNW 08:55:38 81° WSW 09:01:17 10° SSE
OAO 3 Rocket 3.3 08:54:36 32° WSW 08:56:32 52° S 09:01:16 10° ESE
Cosmos 1892 2.9 08:55:11 28° SSE 08:56:47 59° E 09:00:15 10° NNE
SAR-Lupe-1 3.9 08:53:54 10° N 08:57:28 77° WNW 08:58:33 42° SSW
Resurs 1-4 Rocket 3.3 08:55:02 10° N 08:59:24 27° WNW 09:01:18 22° W
Cosmos 2181 Rocket 4.0 08:53:46 10° NNW 09:00:03 66° W 09:04:59 17° S
Cosmos 2221 Rocket 3.6 08:58:05 25° S 09:00:44 86° E 09:05:17 10° N
Cosmos 1408 4.5 09:02:22 13° WNW 09:02:22 13° WNW 09:03:13 10° NW
SL-4 R/B 2.3 09:06:31 29° WSW 09:08:35 68° NW 09:13:02 10° NE
Tiangong -2.0 09:08:06 45° SSW 09:08:43 56° SSE 09:11:44 10° ENE
Cosmos 1025 Rocket 4.1 09:06:03 10° SSE 09:10:10 43° E 09:14:19 10° NNE
Cosmos 1328 4.5 09:07:29 13° SSE 09:10:38 49° E 09:14:21 10° NNE
Sich 1 Rocket 3.5 09:06:18 10° N 09:10:49 90° W 09:15:14 10° S
FENGYUN 3A 4.4 09:05:57 10° N 09:10:52 38° WNW 09:13:35 23° WSW
Cosmos 2151 Rocket 3.5 09:08:27 10° N 09:12:56 78° W 09:17:02 12° S
IRAS Rocket 4.4 09:08:54 10° N 09:14:16 56° WNW 09:17:50 21° SW
CZ-2C R/B 3.7 09:15:09 21° WSW 09:16:18 23° W 09:20:21 10° NW
Cosmos 2098 Rocket 4.2 09:11:24 10° NNW 09:16:35 45° W 09:21:18 16° SSW
Cosmos 371 Rocket 4.2 09:12:56 10° S 09:17:24 46° ESE 09:21:59 10° NNE
Cosmos 839 Rocket 4.0 09:10:59 10° NNW 09:17:51 81° WSW 09:23:58 10° SSE
SL-8 R/B 4.3 09:15:58 10° WNW 09:20:13 32° SW 09:24:28 10° SSE
Cosmos 1674 Rocket 3.9 09:20:36 22° SW 09:23:09 47° W 09:27:27 10° N
Lacrosse 5 rocket 1.9 09:20:51 10° WNW 09:24:18 29° WSW 09:27:36 10° S
Okean 2 Rocket 3.1 09:21:23 10° NNW 09:25:42 60° W 09:30:03 10° S
Cosmos 2333 Rocket 2.5 09:24:05 10° NW 09:29:31 46° WSW 09:34:57 10° S
Cosmos 405 Rocket 2.6 09:29:19 10° NNW 09:32:52 56° W 09:36:27 10° S
Cosmos 2322 Rocket 3.1 09:28:21 10° NW 09:33:04 28° WSW 09:37:44 10° SSW
Cosmos 2297 Rocket 3.4 09:32:15 10° S 09:37:25 39° ESE 09:42:37 10° NE
ATLAS CENTAUR R/B 0.9 09:36:06 17° SSW 09:38:40 86° ESE 09:42:12 10° NNE
ALOS 3.4 09:36:57 10° NNW 09:40:48 26° WNW 09:43:47 14° WSW
Cosmos 1486 Rocket 4.0 09:36:15 13° SSW 09:40:57 72° WNW 09:46:09 10° NNE
Cosmos 1570 Rocket 4.1 09:39:16 10° NNW 09:44:30 60° WSW 09:49:43 10° S
ADEOS II 3.8 09:42:03 10° NNW 09:45:18 17° WNW 09:48:32 10° WSW
SJ 16-02 3.6 09:45:26 10° WNW 09:45:53 10° WNW 09:46:19 10° NW
SL-8 Rocket 4.5 09:40:50 10° S 09:46:54 64° E 09:52:59 10° NNE
Cosmos 2208 Rocket 3.9 09:42:47 10° NNW 09:48:03 76° WSW 09:53:12 10° S
Okean 1 Rocket 3.3 09:47:19 10° NNW 09:51:30 49° W 09:55:38 10° SSW
CZ-2C R/B 2.4 09:52:43 10° N 09:57:23 61° WNW 10:01:55 10° SSW
COSMOS 2455 3.4 09:52:39 10° S 09:58:31 58° ESE 10:04:25 10° NE
IRS-1D 3.6 09:55:11 10° N 10:00:30 75° WNW 10:05:45 10° SSW
Cosmos 1484 Rocket 4.4 09:57:08 10° NNE 10:00:33 33° E 10:03:58 10° SSE
Envisat 3.6 09:56:29 10° N 10:01:11 40° WNW 10:05:53 10° SW
Cosmos 2218 Rocket 4.3 09:58:06 10° S 10:04:27 74° E 10:10:47 10° N
Cosmos 158 Rocket 4.1 10:01:29 10° NNW 10:06:46 58° WSW 10:11:57 10° S
CZ-4C R/B 3.1 10:06:44 10° S 10:10:31 34° ESE 10:14:59 10° NE
RESURS DK-1 3.9 10:09:15 10° WNW 10:11:47 16° WSW 10:14:20 10° SW
DMSP B5D2-2 4.1 10:09:48 10° S 10:14:57 64° WSW 10:20:11 10° NNW
Cosmos 773 Rocket 4.0 10:10:22 10° NNW 10:15:31 90° WSW 10:20:39 10° SSE
Meteor 1-11 4.4 10:11:53 10° S 10:17:32 82° E 10:23:18 10° N
